Location: Jackson Park
(37.2862°N, 79.9123°W)
Time: 13:19:15
(UTC+00:00)

Vanguard 2 Rocket - Pass Details

Date: 18 May 2026
Orbit: 553 x 3286 km, 32.9° (Epoch: 6 June)

Event Time Altitude Azimuth Distance (km) Brightness Sun altitude
Rises 18:42:46 0° 274° (W) 5,817 11.3 64.2°
Reaches altitude 10° 18:46:05 10° 272° (W) 5,103 11.2 63.7°
Maximum altitude 19:02:25 71° 193° (SSW) 3,276 11.4 60.9°
Drops below altitude 10° 19:22:24 10° 114° (ESE) 6,063 11.0 57.4°
Sets 19:26:46 0° 113° (ESE) 6,910 11.2 56.6°
